Preston, MN

4:00 PM CST on February 19, 2017 (GMT -0600)
Preston

Weather History for KFKA - October, 2012

Change the Weather History Date:

Thursday, October 18, 2012

  Actual Average (KRST) Record (KRST)
Temperature  
Mean Temperature 46 °F -  
Max Temperature 49 °F 52 °F 84 °F (1950)
Min Temperature 44 °F 34 °F 17 °F (1972)
Degree Days  
Heating Degree Days 18    
Moisture  
Dew Point 39 °F    
Average Humidity 78    
Maximum Humidity 85    
Minimum Humidity 66    
Precipitation  
Precipitation 0.02 in - - ()
Sea Level Pressure  
Sea Level Pressure 29.28 in    
Wind  
Wind Speed 9 mph (WSW)    
Max Wind Speed 18 mph    
Max Gust Speed 23 mph    
Visibility 9 miles    
Events Rain    
Averages and records for this station are not official NWS values.
T = Trace of Precipitation, MM = Missing Value Source: NWS Daily Summary

Daily Weather History Graph

Daily Weather History Graph

Search for Another Location

Airport or City:

Trip Planner

Search our weather history database for the weather conditions in past years. The results will help you decide how hot, cold, wet, or windy it might be!

Date:

Astronomy

Oct. 18, 2012 Rise Set
Actual Time 7:27 AM CDT 6:19 PM CDT
Civil Twilight 6:58 AM CDT 6:48 PM CDT
Nautical Twilight 6:24 AM CDT 7:21 PM CDT
Astronomical Twilight 5:51 AM CDT 7:55 PM CDT
Moon 11:16 AM CDT (10/18) 8:47 PM CDT (10/18)
Length of Visible Light 11h 50m
Length of Day
10h 52m
Waxing Crescent, 14% of the Moon is Illuminated
Oct 18
Waxing Crescent
Oct 21
First Quarter
Oct 29
Full
Nov 6
Last Quarter
Nov 13
New

Hourly Weather History & Observations

Time (CDT) Temp. Windchill Dew Point Humidity Pressure Visibility Wind Dir Wind Speed Gust Speed Precip Events Conditions
12:10 AM 49.3 °F - 38.3 °F 66% 29.31 in 10.0 mi WNW 13.8 mph 18.4 mph N/A   Overcast
12:30 AM 48.6 °F - 38.8 °F 69% 29.30 in 10.0 mi West 17.3 mph 23.0 mph N/A   Overcast
12:50 AM 47.7 °F - 39.2 °F 72% 29.29 in 10.0 mi West 18.4 mph - N/A   Overcast
1:10 AM 46.8 °F - 39.2 °F 75% 29.29 in 10.0 mi WNW 13.8 mph - N/A   Overcast
1:30 AM 46.6 °F - 39.2 °F 75% 29.28 in 10.0 mi West 12.7 mph - N/A   Overcast
1:50 AM 46.4 °F 40.4 °F 38.8 °F 75% 29.29 in 10.0 mi West 13.8 mph - N/A   Overcast
2:10 AM 46.6 °F - 38.5 °F 73% 29.30 in 10.0 mi West 11.5 mph - N/A   Overcast
2:30 AM 46.4 °F 41.1 °F 39.2 °F 76% 29.30 in 7.0 mi West 11.5 mph 17.3 mph N/A   Overcast
2:50 AM 45.5 °F 41.3 °F 40.1 °F 81% 29.29 in 7.0 mi WSW 8.1 mph - N/A   Overcast
3:10 AM 45.5 °F 41.3 °F 40.3 °F 82% 29.28 in 5.0 mi WSW 8.1 mph - N/A   Light Drizzle
3:30 AM 45.5 °F 39.9 °F 41.0 °F 84% 29.27 in 4.0 mi West 11.5 mph - N/A Rain Light Rain
3:50 AM 45.1 °F 39.5 °F 41.0 °F 85% 29.26 in 7.0 mi West 11.5 mph - N/A   Overcast
4:10 AM 45.1 °F 39.9 °F 41.0 °F 85% 29.26 in 5.0 mi West 10.4 mph - N/A   Overcast
4:30 AM 45.0 °F 38.5 °F 40.5 °F 84% 29.26 in 10.0 mi West 13.8 mph - N/A   Overcast
4:50 AM 45.0 °F 39.7 °F 40.1 °F 83% 29.25 in 10.0 mi West 10.4 mph 17.3 mph N/A   Overcast
5:10 AM 45.0 °F 39.3 °F 40.1 °F 83% 29.24 in 10.0 mi West 11.5 mph - N/A   Overcast
5:30 AM 45.0 °F 40.1 °F 40.3 °F 84% 29.24 in 10.0 mi WSW 9.2 mph - N/A   Overcast
5:50 AM 45.0 °F 40.1 °F 40.1 °F 83% 29.24 in 10.0 mi West 9.2 mph - N/A   Overcast
6:10 AM 45.0 °F 39.7 °F 40.1 °F 83% 29.24 in 10.0 mi WSW 10.4 mph - N/A   Overcast
6:30 AM 45.0 °F 39.7 °F 40.1 °F 83% 29.23 in 10.0 mi WSW 10.4 mph - N/A   Overcast
6:50 AM 45.0 °F 40.6 °F 40.1 °F 83% 29.23 in 10.0 mi WSW 8.1 mph - N/A   Overcast
7:10 AM 45.1 °F 40.3 °F 40.1 °F 82% 29.23 in 10.0 mi WSW 9.2 mph - N/A   Overcast
7:30 AM 45.0 °F 40.6 °F 40.1 °F 83% 29.23 in 7.0 mi WSW 8.1 mph - N/A   Overcast
7:50 AM 45.0 °F 40.6 °F 40.1 °F 83% 29.23 in 4.0 mi WSW 8.1 mph - N/A   Haze
8:10 AM 44.8 °F 40.4 °F 40.3 °F 84% 29.23 in 3.0 mi West 8.1 mph - N/A   Haze
8:30 AM 44.8 °F 40.4 °F 40.5 °F 85% 29.23 in 1.2 mi WSW 8.1 mph - 0.01 in Rain Light Rain
8:50 AM 44.8 °F 39.4 °F 40.6 °F 85% 29.23 in 2.0 mi West 10.4 mph - 0.01 in Rain Light Rain
9:10 AM 44.8 °F 40.4 °F 40.3 °F 84% 29.23 in 10.0 mi West 8.1 mph - 0.01 in   Overcast
9:30 AM 44.8 °F 41.0 °F 40.1 °F 84% 29.23 in 10.0 mi WSW 6.9 mph - 0.01 in   Overcast
9:50 AM 45.0 °F 38.9 °F 40.1 °F 83% 29.22 in 10.0 mi WSW 12.7 mph - 0.01 in   Overcast
10:11 AM 45.7 °F 39.8 °F 40.5 °F 82% 29.23 in 10.0 mi West 12.7 mph - N/A   Overcast
10:30 AM 45.1 °F 41.4 °F 39.4 °F 80% 29.23 in 10.0 mi WSW 6.9 mph - N/A   Overcast
10:50 AM 45.5 °F 41.8 °F 39.2 °F 79% 29.23 in 10.0 mi West 6.9 mph - N/A   Light Drizzle
11:10 AM 45.1 °F 40.8 °F 39.2 °F 80% 29.23 in 10.0 mi West 8.1 mph - N/A   Light Drizzle
11:30 AM 45.0 °F 41.2 °F 39.7 °F 82% 29.23 in 7.0 mi West 6.9 mph - N/A   Overcast
11:50 AM 45.9 °F 42.3 °F 39.2 °F 78% 29.23 in 10.0 mi SW 6.9 mph - N/A   Overcast
12:10 PM 46.2 °F 44.1 °F 38.1 °F 73% 29.23 in 10.0 mi SSW 4.6 mph - N/A   Overcast
12:30 PM 45.7 °F 43.4 °F 37.8 °F 74% 29.24 in 10.0 mi WSW 4.6 mph - N/A Rain Light Rain
12:50 PM 45.9 °F - 37.0 °F 71% 29.24 in 10.0 mi Calm Calm - N/A   Overcast
1:10 PM 45.9 °F 41.7 °F 37.8 °F 73% 29.24 in 7.0 mi SW 8.1 mph - N/A Rain Light Rain
1:30 PM 45.1 °F 42.8 °F 39.0 °F 79% 29.24 in 7.0 mi SSW 4.6 mph - N/A Rain Light Rain
1:50 PM 45.9 °F 43.6 °F 39.4 °F 78% 29.24 in 10.0 mi SSW 4.6 mph - N/A   Overcast
2:10 PM 47.1 °F - 38.7 °F 72% 29.25 in 10.0 mi SSW 5.8 mph - N/A   Overcast
2:30 PM 46.8 °F - 38.5 °F 73% 29.25 in 10.0 mi South 6.9 mph - N/A   Overcast
2:50 PM 47.3 °F - 38.1 °F 70% 29.25 in 10.0 mi South 5.8 mph - N/A   Overcast
3:10 PM 47.3 °F - 38.7 °F 72% 29.26 in 10.0 mi South 6.9 mph - N/A   Overcast
3:30 PM 47.5 °F - 37.9 °F 69% 29.27 in 10.0 mi SSW 3.5 mph - N/A   Overcast
3:50 PM 47.8 °F - 37.9 °F 69% 29.27 in 10.0 mi South 3.5 mph - N/A   Overcast
4:10 PM 47.8 °F - 38.1 °F 69% 29.28 in 10.0 mi South 3.5 mph - N/A   Overcast
4:31 PM 47.8 °F - 38.1 °F 69% 29.29 in 10.0 mi South 3.5 mph - N/A   Overcast
4:50 PM 47.8 °F - 38.5 °F 70% 29.29 in 10.0 mi SE 3.5 mph - N/A   Overcast
5:10 PM 47.7 °F - 38.5 °F 70% 29.30 in 10.0 mi Calm Calm - N/A   Overcast
5:31 PM 47.7 °F - 38.5 °F 70% 29.30 in 10.0 mi Calm Calm - N/A   Overcast
5:50 PM 47.7 °F - 38.7 °F 71% 29.31 in 10.0 mi Calm Calm - N/A   Overcast
6:10 PM 47.5 °F - 39.0 °F 72% 29.32 in 10.0 mi Calm Calm - N/A   Overcast
6:30 PM 47.3 °F - 39.2 °F 73% 29.32 in 10.0 mi Calm Calm - N/A   Overcast
6:50 PM 47.3 °F - 39.2 °F 73% 29.32 in 10.0 mi Calm Calm - N/A   Overcast
7:10 PM 46.8 °F - 39.2 °F 75% 29.33 in 10.0 mi Calm Calm - N/A   Overcast
7:30 PM 46.6 °F - 39.7 °F 77% 29.34 in 10.0 mi Calm Calm - N/A   Overcast
7:50 PM 46.4 °F - 40.1 °F 79% 29.35 in 10.0 mi Calm Calm - N/A   Overcast
8:11 PM 45.9 °F - 40.3 °F 81% 29.35 in 10.0 mi Calm Calm - N/A   Overcast
8:30 PM 45.9 °F - 40.3 °F 81% 29.35 in 10.0 mi Calm Calm - N/A   Overcast
8:50 PM 45.9 °F - 40.3 °F 81% 29.36 in 10.0 mi Calm Calm - N/A   Overcast
9:10 PM 45.7 °F - 40.3 °F 81% 29.36 in 10.0 mi Calm Calm - N/A   Overcast
9:30 PM 45.5 °F - 40.3 °F 82% 29.37 in 10.0 mi Calm Calm - N/A   Overcast
9:50 PM 45.0 °F - 40.3 °F 84% 29.37 in 10.0 mi Calm Calm - N/A   Overcast
10:10 PM 45.0 °F - 40.3 °F 84% 29.37 in 10.0 mi Calm Calm - N/A   Overcast
10:30 PM 45.1 °F - 40.1 °F 82% 29.37 in 10.0 mi Calm Calm - N/A   Overcast
10:50 PM 44.8 °F - 40.1 °F 84% 29.37 in 10.0 mi Calm Calm - N/A   Overcast
11:10 PM 44.6 °F - 40.3 °F 85% 29.37 in 10.0 mi Calm Calm - N/A   Overcast
11:30 PM 44.6 °F - 40.1 °F 84% 29.38 in 10.0 mi Calm Calm - N/A   Overcast
11:50 PM 44.6 °F - 40.1 °F 84% 29.38 in 10.0 mi Calm Calm - N/A   Overcast